Location: Armagh
(54.3500°N, 6.6670°W)
Time: 07:12:30
(UTC+00:00)

ISS - Pass Details

Date: 12 December 2017
Orbit: 401 x 406 km, 51.6° (Epoch: 17 January)

Event Time Altitude Azimuth Distance (km) Brightness Sun altitude
Rises 17:46:01 0° 275° (W) 2,341 1.3 -13.8°
Reaches altitude 10° 17:48:13 10° 266° (W) 1,478 0.3 -14.1°
Maximum altitude 17:51:14 34° 200° (SSW) 701 -2.3 -14.5°
Enters shadow 17:54:08 11° 135° (SE) 1,422 -1.3 -14.9°
